sat.trackr.live / text

‹ back to catalog

UNKNOWN

NORAD 87335

UNKNOWN UNKNOWN UNKNOWN

§ Identity

Operator
Country
Launch date
Launch site
Launch vehicle
Mass (kg)
RCS (m²)

External: N2YO · Heavens-Above

§ Orbital elements

Epoch: 2026-09-14T12:51:32.560128Z

Period
101.66 min
Inclination
89.9932°
Eccentricity
0.0084780
Mean motion
14.16492494 rev/d
Perigee alt
776.1 km
Apogee alt
898.4 km
Semi-major
7,215.4 km
B*
6.6256e-3
RAAN
267.6116°
Arg perigee
65.2045°
Mean anomaly
295.7933°
Rev number
42,590

§ Raw data

UNKNOWN1 87335U          26257.53579352  .00013681  00000+0  66256-2 0  99922 87335  89.9932 267.6116 0084780  65.2045 295.7933 14.16492494425908

JSON: /api/v1/satellites/87335 · /tle

For live sub-satellite position, see the globe view (requires WebGL).

§ Visibility from observer

Set your observer location to see the next 7 days of passes ≥ 10°. The values pass through the URL so the page stays shareable.

No JS? Fill the form by hand. The geolocation button needs JavaScript.